Home > Weather > New Haven > Past weeks

Flag for U.S.A. Weather for the Past 2 Weeks in New Haven, Connecticut, U.S.A.

Now
29 °F

Overcast.


Feels Like: 29 °F
Forecast: 24 / 38 °F
Wind: No wind

Location: Tweed-New Haven Airport

Current Time: Feb 9, 2016 at 8:39:05 PM

Latest Report: Feb 9, 2016 at 7:53 PM


Visibility: 10 mi

Pressure: 29.62 "Hg

Humidity: 72%

Dew point: 21 °F

Location of New HavenLocation

Historic Weather in New Haven — Graph

°F

New Haven Temperature Yesterday

Maximum temperature yesterday: 37 °F (at 4:53 AM)
Minimum temperature yesterday: 23 °F (at 1:53 PM)
Average temperature yesterday: 29 °F

High & Low Weather Summary for the Past Weeks

 TemperatureHumidityPressure
High59 °F (Feb 1, 1:53 PM)100% (Jan 26, 7:53 AM)30.42 "Hg (Jan 26, 7:53 AM)
Low17 °F (Feb 6, 4:53 AM)36% (Feb 2, 1:53 PM)29.41 "Hg (Jan 29, 11:53 AM)
Average36 °F73%29.98 "Hg
* Reported Jan 25 6:53 PM — Feb 9 6:53 PM, New Haven, Weather by CustomWeather, © 2016

Note: Actual official high and low records may vary slightly from our data, if they occured in-between our weather recording intervals... More about our weather records

Advertising

New Haven Weather History for the Previous 24 Hours

 ConditionsComfort  
Time TempWeatherWind HumidityBarometerVisibility
6:53 PM
Tue, Feb 9
27 °FPassing clouds.No wind72%29.62 "Hg10 mi
5:53 PM28 °FPassing clouds.No wind69%29.60 "Hg10 mi
4:53 PM31 °FPartly sunny.No wind64%29.58 "Hg10 mi
3:53 PM32 °FScattered clouds.3 mph64%29.58 "Hg10 mi
2:53 PM32 °FScattered clouds.5 mph64%29.57 "Hg10 mi
1:53 PM32 °FBroken clouds.3 mph64%29.57 "Hg10 mi
12:53 PM30 °FPartly sunny.5 mph66%29.58 "Hg10 mi
11:53 AM28 °FBroken clouds.9 mph72%29.62 "Hg10 mi
9:53 AM24 °FPartly sunny.9 mph81%29.67 "Hg10 mi
8:53 AM22 °FOvercast.9 mph89%29.71 "Hg10 mi
7:53 AM21 °FMore clouds than sun.5 mph88%29.72 "Hg10 mi
6:53 AM21 °FPartly cloudy.5 mph85%29.72 "Hg10 mi
5:53 AM19 °FPassing clouds.8 mph88%29.68 "Hg10 mi
4:53 AM21 °FPassing clouds.9 mph85%29.69 "Hg10 mi
3:53 AM22 °FIce fog.3 mph89%29.74 "Hg5 mi
2:53 AM23 °FLight snow. Ice fog.6 mph85%29.74 "Hg5 mi
1:53 AM24 °FLight snow. Overcast.6 mph81%29.75 "Hg3 mi
12:53 AM24 °FLight snow. Overcast.6 mph81%29.76 "Hg6 mi
11:53 PM
Mon, Feb 8
24 °FOvercast.7 mph84%29.78 "Hg10 mi
10:53 PM24 °FOvercast.8 mph84%29.79 "Hg10 mi
9:53 PM24 °FLight snow. Ice fog.5 mph84%29.80 "Hg5 mi
8:53 PM24 °FLight snow. Ice fog.9 mph84%29.79 "Hg4 mi
Weather by CustomWeather, © 2016

See weather overviewHow to use our weather pages